Regional Weather Roundup
Issued by NWS

Home | Current Version | Previous Version | Graphics & Text | Print | Product List | Glossary On
Versions: 1 2 3 4 5 6 7 8 9 10 11 12 13 14 15 16 17 18 19 20 21 22 23 24 25 26 27 28 29 30 31 32 33 34 35 36 37 38 39 40 41 42 43 44 45 46 47 48 49 50
000
ASUS43 KDTX 231810
RWRMI
MICHIGAN HOURLY REGIONAL WEATHER ROUNDUP
NATIONAL WEATHER SERVICE DETROIT/PONTIAC MI
200 PM EDT MON OCT 23 2017

NOTE: "FAIR" INDICATES FEW OR NO CLOUDS BELOW 12,000 FEET WITH NO
SIGNIFICANT WEATHER AND/OR OBSTRUCTION TO VISIBILITY.

MIZ047>049-052>055-059>063-066>070-074>076-081>083-231900-
SOUTHEAST LOWER MICHIGAN

CITY           SKY/WX    TMP DP  RH WIND       PRES   REMARKS
ADRIAN         LGT RAIN  61  59  93 SE12      29.68F FOG
6HR MIN TEMP:  59; 6HR MAX TEMP:  63; 6HR PCP: TRACE;

ALMA           HVY RAIN  57  56  96 CALM      29.71F
ANN ARBOR      RAIN      61  60  97 SE7       29.71F FOG
BAD AXE        CLOUDY    64  55  74 S10G16    29.74F
CARO           DRIZZLE   62  56  82 SE3       29.71F
DETROIT CITY   LGT RAIN  65  59  81 S13       29.73F
6HR MIN TEMP:  63; 6HR MAX TEMP:  67; 6HR PCP: TRACE;

DETROIT        LGT RAIN  64  59  83 SE8       29.72F
6HR MIN TEMP:  63; 6HR MAX TEMP:  66; 6HR PCP: TRACE;

FLINT          LGT RAIN  63  57  81 SE8       29.71F
6HR MIN TEMP:  60; 6HR MAX TEMP:  64; 6HR PCP:  0.03;

GROSSE ILE     DRIZZLE   64  59  84 SE10      29.71F
6HR MIN TEMP:  62; 6HR MAX TEMP:  65;

HILLSDALE      LGT RAIN  59  57  94 SE8       29.66F
HOWELL         DRIZZLE   61  58  90 SE9       29.70F
6HR MIN TEMP:  60; 6HR MAX TEMP:  63; 6HR PCP:  0.02;


CITY           SKY/WX    TMP DP  RH WIND       PRES   REMARKS
JACKSON        CLOUDY    61  58  90 E8        29.67F
6HR MIN TEMP:  60; 6HR MAX TEMP:  62; 6HR PCP:  0.05;

LAMBERTVILLE   RAIN      64  61  90 SE9       29.69F
6HR MIN TEMP:  64; 6HR MAX TEMP:  69;

LANSING        RAIN      59  57  93 SE7       29.69F FOG
6HR MIN TEMP:  58; 6HR MAX TEMP:  63; 6HR PCP:  0.26;

LAPEER         RAIN      64  56  77 SE7       29.73F
6HR MIN TEMP:  61; 6HR MAX TEMP:  64;

MASON          LGT RAIN  61  58  90 SE10G17   29.69F
MONROE           N/A    N/A N/A N/A MISG        N/A
MT. CLEMENS    CLOUDY    65  61  88 SE12      29.72F
6HR MIN TEMP:  60; 6HR MAX TEMP:  66;

PONTIAC        CLOUDY    63  58  83 SE10      29.71F
6HR MIN TEMP:  61; 6HR MAX TEMP:  64; 6HR PCP:  0.01;

PORT HOPE        N/A     64  56  75 S9        29.74F
6HR MIN TEMP:  60; 6HR MAX TEMP:  65;

PORT HURON     CLOUDY    70  55  60 SE9       29.75F
TRI CITIES     LGT RAIN  59  59 100 NE6       29.73F FOG
6HR MIN TEMP:  59; 6HR MAX TEMP:  60; 6HR PCP:  0.34;

MIDLAND        HVY RAIN  57  57  98 NE5       29.71F
6HR MIN TEMP:  57; 6HR MAX TEMP:  58; 6HR PCP:  0.39;

TROY           DRIZZLE   66  57  73 S8G16     29.75F
SAGINAW HB     LGT RAIN  59  55  88 NE3       29.71F
$$
MIZ043>046-050>051-056>058-064>065-071>073-077>080-231900-
SOUTHWEST LOWER MICHIGAN

CITY           SKY/WX    TMP DP  RH WIND       PRES   REMARKS
BATTLE CREEK   RAIN      59  58  96 NE6       29.67F FOG
6HR MIN TEMP:  59; 6HR MAX TEMP:  60; 6HR PCP:  0.33;

BENTON HARBOR  HVY RAIN  54  51  90 VRB7      29.68F FOG
6HR MIN TEMP:  54; 6HR MAX TEMP:  55; 6HR PCP:  1.04;

BIG RAPIDS     MIX PCPN  50  48  93 NE7       29.73S
6HR MIN TEMP:  50; 6HR MAX TEMP:  51; 6HR PCP:  0.87;

COLDWATER      RAIN      61  59  93 SE7       29.65F
6HR MIN TEMP:  59; 6HR MAX TEMP:  63;

FREMONT        HVY RAIN  51  51 100 CALM      29.74F
HOLLAND        HVY RAIN  53  51  93 N7        29.70F FOG
6HR MIN TEMP:  52; 6HR MAX TEMP:  53; 6HR PCP:  0.73;

GRAND RAPIDS   RAIN      54  54 100 N7        29.69F FOG
6HR MIN TEMP:  54; 6HR MAX TEMP:  55; 6HR PCP:  0.66;

IONIA          LGT RAIN  58  57  99 NE3       29.67F
6HR MIN TEMP:  56; 6HR MAX TEMP:  58; 6HR PCP:  0.47;

KALAMAZOO      RAIN      58  55  90 N7        29.66F FOG
6HR MIN TEMP:  57; 6HR MAX TEMP:  60; 6HR PCP:  0.42;

LUDINGTON      RAIN      51  49  95 NW5       29.76F
6HR MIN TEMP:  50; 6HR MAX TEMP:  51; 6HR PCP:  0.19;

MARSHALL       RAIN      60  59  98 S3        29.66F
6HR MIN TEMP:  58; 6HR MAX TEMP:  64; 6HR PCP:  0.19;

MOUNT PLEASANT HVY RAIN  54  52  94 N7        29.71F
6HR MIN TEMP:  54; 6HR MAX TEMP:  56; 6HR PCP:  0.85;

MUSKEGON       RAIN      53  51  93 N8        29.72F FOG
6HR MIN TEMP:  52; 6HR MAX TEMP:  53; 6HR PCP:  1.00;

SOUTH HAVEN    RAIN      54  52  95 N5        29.68F
$$
MIZ016>042-231900-
NORTHERN LOWER MICHIGAN

CITY           SKY/WX    TMP DP  RH WIND       PRES   REMARKS
ALPENA         RAIN      53  53 100 NE6       29.78F FOG
6HR MIN TEMP:  51; 6HR MAX TEMP:  53; 6HR PCP:  0.43;

BEAVER ISLAND  CLOUDY    55  51  87 E6        29.78F
6HR MIN TEMP:  47; 6HR MAX TEMP:  55;

BELLAIRE       LGT RAIN  50  49  93 NE5       29.77F
6HR MIN TEMP:  50; 6HR MAX TEMP:  51;

CADILLAC       RAIN      49  48  99 NE5       29.74F
CHARLEVOIX     CLOUDY    51  51 100 NE3       29.81F
FRANKFORT      CLOUDY    53  53  97 E3        29.77F
GAYLORD        RAIN      48  46  93 NE8       29.76F FOG
6HR MIN TEMP:  47; 6HR MAX TEMP:  48; 6HR PCP:  0.65;

GRAYLING         N/A    N/A N/A N/A MISG        N/A
HARBOR SPRINGS LGT RAIN  50  48  94 E8        29.78F
HOUGHTON LAKE  RAIN      50  48  93 NE7       29.76F FOG
6HR MIN TEMP:  49; 6HR MAX TEMP:  50; 6HR PCP:  0.80;

MANISTEE       CLOUDY    52  50  93 NE5       29.76F
OSCODA         RAIN      55  55  97 NE8       29.74F
6HR MIN TEMP:  54; 6HR MAX TEMP:  55; 6HR PCP:  0.02;

PELLSTON       CLOUDY    51  50  96 CALM      29.80F
6HR MIN TEMP:  49; 6HR MAX TEMP:  51; 6HR PCP:  0.27;

ROGERS CITY    RAIN      52  51  95 NE5       29.79F
TRAVERSE CITY  LGT RAIN  53  50  89 E3        29.77F
6HR MIN TEMP:  52; 6HR MAX TEMP:  53; 6HR PCP:  0.23;

$$
MIZ007>008-015-231900-
EASTERN UPPER MICHIGAN

CITY           SKY/WX    TMP DP  RH WIND       PRES   REMARKS
KINROSS        CLOUDY    50  47  89 E6        29.81F
6HR MIN TEMP:  48; 6HR MAX TEMP:  51;

MACKINAC ISLAN CLOUDY    51  50  96 NE5       29.80F
6HR MIN TEMP:  50; 6HR MAX TEMP:  51; 6HR PCP:  0.19;

NEWBERRY       CLOUDY    54  50  86 SE7       29.78F
6HR MIN TEMP:  42; 6HR MAX TEMP:  55;

S. S. MARIE    CLOUDY    53  48  83 E3        29.80F
6HR MIN TEMP:  50; 6HR MAX TEMP:  53;

MUNISING         N/A     55  45  68 S6        29.76F
6HR MIN TEMP:  41; 6HR MAX TEMP:  55;

$$
MIZ004>006-011>014-085-231900-
CENTRAL UPPER MICHIGAN

CITY           SKY/WX    TMP DP  RH WIND       PRES   REMARKS
MANISTIQUE     CLOUDY    53  46  77 S3        29.78F
6HR MIN TEMP:  36; 6HR MAX TEMP:  53;

ESCANABA       CLOUDY    51  46  83 CALM      29.79F
6HR MIN TEMP:  42; 6HR MAX TEMP:  51;

MENOMINEE      CLOUDY    51  47  86 SW3       29.80F
6HR MIN TEMP:  42; 6HR MAX TEMP:  51;

SAWYER-GWINN   SUNNY     50  43  76 S8        29.77F
$$
MIZ001>003-009>011-084-231900-
WESTERN UPPER MICHIGAN

CITY           SKY/WX    TMP DP  RH WIND       PRES   REMARKS
IRON MOUNTAIN  CLOUDY    50  42  74 SE8       29.75F
6HR MIN TEMP:  36; 6HR MAX TEMP:  50;

HOUGHTON       MOSUNNY   60  38  43 S8        29.70F
6HR MIN TEMP:  43; 6HR MAX TEMP:  60;

COPPER HARBOR    N/A     56  44  64 SW7G16    29.70F
6HR MIN TEMP:  48; 6HR MAX TEMP:  57;

IRONWOOD       MOSUNNY   60  41  49 SW12      29.69F
6HR MIN TEMP:  47; 6HR MAX TEMP:  60;

$$

ABBREVIATIONS USED IN REMARKS
   TC - TEMPERATURE IN CELSIUS
  WCI - WIND CHILL INDEX
   HX - HEAT INDEX
  VSB - VISIBILITY





USA.gov is the U.S. government's official web portal to all federal, state and local government web resources and services.